SCP
0 0 0 0 0 0 0 0 0 0 0 0 0 0 0 0 0 0 0 0 0 0 0 0 0 1 1 0 0 0 0 0 0 0 0 0 0 0 0 0 0 0 0 0
0 0 0 0 0 0 0 0 0 0 0 0 0 0 0 0 0 0 0 0 0 0 0 0 0 0 0 0 0 0 0 0 0 0 0 0 0 0 0 0 0 0 0 0
0 0 0 0 0 0 0 0 0 0 0 0 0 0 0 0 0 0 0 0 0 0 0 0 0 0 0 0 0 0 0 0 0 0 0 0 0 0 0 0 0 0 0 0
0 0 0 0 0 0 0 0 0 0 0 0 0 0 0 0 0 0 0 0 0 0 0 0 0 0 0 0 0 0 0 0 0 0 0 0 0 0 0 0 0 0 0 0
0 0 0 0 0 0 0 0 0 0 0 0 0 0 0 0 0 0 0 0 0 0 0 0 0 0 0 0 0 0 0 0 0 0 0 0 0 0 0 0 0 0 0 0
0 0 0 0 0 0 0 0 0 0 0 0 0 0 0 0 0 0 0 0 0 0 0 0 0 0 0 0 0 0 0 0 0 0 0 0 0 0 0 0 0 0 0 0
0 0 0 0 0 0 0 0 0 0 0 0 0 0 0 0 0 0 0 0 0 0 0 0 0 0 0 0 0 0 0 0 0 0 0 0 0 0 0 0 0 0 0 0
0 0 0 0 0 0 0 0 0 0 0 0 0 0 0 0 0 0 0 0 0 0 0 0 0 0 0 0 0 0 0 0 0 0 0 0 0 0 0 0 0 0 0 0
0 0 0 0 0 0 0 0 0 0 0 0 0 0 0 0 0 0 0 0 0 0 0 0 0 0 0 0 0 0 0 0 0 0 0 0 0 0 0 0 0 0 0 0
0 0 0 0 0 0 0 0 0 0 0 0 0 0 0 0 0 0 0 0 0 0 0 0 0 0 0 0 0 0 0 0 0 0 0 0 0 0 0 0 0 0 0 0
0 0 0 0 0 0 0 0 0 0 0 0 0 0 0 0 0 0 0 0 0 0 0 0 0 0 0 0 0 0 0 0 0 0 0 0 0 0 0 0 0 0 0 0
0 0 0 0 0 0 0 0 0 0 0 0 0 0 0 0 0 0 0 0 0 0 0 0 0 0 0 0 0 0 0 0 0 0 0 0 0 0 0 0 0 0 0 0
0 0 0 0 0 0 0 0 0 0 0 0 0 0 0 0 0 0 0 0 0 0 0 0 0 0 0 0 0 0 0 0 0 0 0 0 0 0 0 0 0 0 0 0
0 0 0 0 0 0 0 0 0 0 0 0 0 0 0 0 0 0 0 0 0 0 0 0 0 0 0 0 0 0 0 0 0 0 0 0 0 0 0 0 0 0 0 0
0 0 0 0 0 0 0 0 0 0 0 0 0 0 0 0 0 0 0 0 0 0 0 0 0 0 0 0 0 0 0 0 0 0 0 0 0 0 0 0 0 0 0 0
0 0 0 0 0 0 0 0 0 0 0 0 0 0 0 0 0 0 0 0 0 0 0 0 0 0 0 0 0 0 0 0 0 0 0 0 0 0 0 0 0 0 0 0
0 0 0 0 0 0 0 0 0 0 0 0 0 0 0 0 0 0 0 0 0 0 0 0 0 0 0 0 0 0 0 0 0 0 0 0 0 0 0 0 0 0 0 0
0 0 0 0 0 0 0 0 0 0 0 0 0 0 0 0 0 0 0 0 0 0 0 0 0 0 0 0 0 0 0 0 0 0 0 0 0 0 0 0 0 0 0 0
0 0 0 0 0 0 0 0 0 0 0 0 0 0 0 0 0 0 0 0 0 0 0 0 0 0 0 0 0 0 0 0 0 0 0 0 0 0 0 0 0 0 0 0
0 0 0 0 0 0 0 0 0 0 0 0 0 0 0 0 0 0 0 0 0 0 0 0 0 0 0 0 0 0 0 0 0 0 0 0 0 0 0 0 0 0 0 0
0 0 0 0 0 0 0 0 0 0 0 0 0 0 0 0 0 0 0 0 0 0 0 0 0 0 0 0 0 0 0 0 0 0 0 0 0 0 0 0 0 0 0 0
0 0 0 0 0 0 0 0 0 0 0 0 0 0 0 0 0 0 0 0 0 0 0 0 0 0 0 0 0 0 0 0 0 0 0 0 0 0 0 0 0 0 0 0
0 0 0 0 0 0 0 0 0 0 0 0 0 0 0 0 0 0 0 0 0 0 0 0 0 0 0 0 0 0 0 0 0 0 0 0 0 0 0 0 0 0 0 0
0 0 0 0 0 0 0 0 0 0 0 0 0 0 0 0 0 0 0 0 0 0 0 0 0 0 0 0 0 0 0 0 0 0 0 0 0 0 0 0 0 0 0 0
0 0 0 0 0 0 0 0 0 0 0 0 0 0 0 0 0 0 0 0 0 0 0 0 0 0 0 0 0 0 0 0 0 0 0 0 0 0 0 0 0 0 0 0
0 0 0 0 0 0 0 0 0 0 0 0 0 0 0 0 0 0 0 0 0 0 0 0 0 0 0 0 0 0 0 0 0 0 0 0 0 0 0 0 0 0 0 0
Wind_Speed
3 1 6 10 9 9 4 2 0 1 1 4 4 2 0 1 3 5 5 6 7 6 5 5 6 7 7 6 7 6 6 5 4 3 2 2 2 2 2 1 2 2 1 2
3 7 15 10 7 4 3 4 2 3 4 5 4 2 1 2 4 4 6 7 7 6 5 5 5 6 6 6 6 6 6 5 4 2 1 1 2 2 2 2 2 1 1 1
8 12 8 5 3 3 3 5 6 6 4 5 4 3 2 2 1 3 5 6 7 8 9 7 7 6 7 6 5 6 5 5 4 4 3 3 3 3 3 3 2 2 2 1
7 9 6 3 2 3 1 4 9 10 6 1 2 0 4 3 2 4 6 6 6 7 8 7 7 7 7 6 6 6 6 5 5 5 5 5 3 2 2 1 2 3 4 3
5 4 2 2 3 4 5 6 8 8 6 4 3 2 5 2 3 6 8 8 8 8 9 8 8 8 7 8 7 6 6 5 5 5 5 5 4 2 1 2 4 4 4 4
6 5 3 2 1 7 11 7 7 6 5 4 1 1 5 5 7 7 8 9 9 9 8 7 7 7 7 6 6 6 6 5 4 5 5 5 4 3 4 4 3 3 3 3
6 6 4 2 3 2 5 6 4 5 5 2 3 1 7 7 7 9 10 10 9 9 9 9 9 8 8 8 7 6 7 5 4 5 4 4 4 4 3 2 2 2 2 2
2 6 5 2 6 6 4 8 7 4 2 2 2 4 8 7 7 7 8 9 9 9 10 10 10 9 9 9 8 7 7 5 4 4 4 3 4 3 2 1 1 1 0 0
5 6 5 3 2 6 4 2 7 8 4 1 4 5 8 1 5 7 8 9 10 11 11 10 9 9 9 9 8 8 7 5 5 4 4 3 3 3 2 1 1 1 0 1
6 3 5 3 4 3 5 7 6 6 6 2 3 4 6 5 6 7 10 11 11 11 10 10 9 9 8 8 7 7 7 7 5 5 4 3 3 3 2 2 1 0 1 1
5 4 3 2 1 1 2 3 5 5 6 7 4 8 9 12 10 10 11 12 13 12 12 10 9 8 8 7 7 7 6 5 4 4 3 3 2 2 2 1 1 1 1 1
3 5 1 4 4 3 3 5 7 6 5 6 5 9 7 13 11 11 11 12 12 13 11 10 9 8 7 7 6 6 6 5 5 4 4 3 3 2 2 1 1 1 2 2
4 6 3 5 6 3 1 2 4 6 5 5 6 7 3 8 9 10 11 11 11 11 10 9 8 8 8 7 6 6 6 6 5 5 4 4 3 2 2 2 2 2 2 3
4 4 7 8 8 5 3 3 3 6 4 5 8 7 5 8 9 10 10 12 12 12 12 10 8 8 8 7 7 6 6 6 6 5 4 4 3 3 3 3 3 3 3 3
4 3 4 5 5 3 5 6 5 5 8 9 10 10 13 15 14 12 12 12 13 12 12 12 10 8 7 7 6 6 6 5 5 5 4 4 4 3 3 3 3 3 3 4
3 3 1 2 3 4 5 6 6 6 5 6 7 8 8 9 8 9 12 15 15 14 14 12 11 10 9 8 7 6 6 5 5 5 4 4 3 3 3 3 3 3 3 4
2 4 3 3 4 3 5 6 4 4 3 7 8 9 7 8 12 15 15 15 16 15 13 13 12 11 10 9 8 8 7 5 5 5 4 4 4 3 3 3 3 3 4 3
5 4 3 2 1 3 9 5 3 1 2 4 6 8 14 14 13 12 12 14 14 14 13 12 11 10 8 7 7 7 6 6 5 5 4 4 4 4 3 3 4 4 4 4
5 6 4 3 2 5 7 4 2 1 2 1 6 8 8 8 7 2 6 11 14 14 12 11 11 9 8 9 8 7 6 5 5 5 5 5 5 4 4 4 5 4 4 5
4 5 5 3 3 5 6 6 4 3 2 4 3 9 10 10 6 7 7 8 10 10 9 9 9 8 8 8 7 7 6 5 6 6 6 5 5 5 5 6 6 4 4 5
3 3 3 3 3 6 5 7 3 4 5 4 2 7 10 8 9 8 8 8 9 9 9 10 10 9 9 8 8 7 6 6 6 5 5 4 4 5 6 5 4 5 5 5
3 3 2 3 2 7 3 3 2 6 3 1 1 4 5 5 5 8 10 11 11 10 9 10 9 8 7 8 8 7 7 6 5 5 4 4 5 5 4 5 5 5 4 5
3 6 5 5 7 6 3 5 6 3 2 1 1 1 4 6 6 8 9 11 11 11 10 9 9 8 6 7 8 8 7 5 5 4 4 5 5 5 5 5 5 4 4 4
2 2 3 2 6 8 7 5 5 5 4 3 2 2 4 6 8 9 9 9 9 9 9 8 8 8 7 7 7 8 7 6 5 5 5 5 5 5 5 4 4 4 5 5
6 5 3 3 5 4 5 5 5 3 2 2 2 2 5 7 7 9 9 9 9 7 7 8 8 9 9 8 8 7 6 6 6 6 5 5 5 5 5 5 5 6 7 7
4 7 7 8 8 6 6 5 3 2 2 2 2 2 2 6 8 8 8 8 8 7 7 7 7 7 7 7 6 6 5 6 6 5 5 4 4 4 4 5 6 8 10 12
Wind_Direction
265 145 243 240 217 212 223 174 120 298 76 78 82 71 326 134 119 117 128 131 136 144 144 131 123 115 106 95 91 89 84 71 68 60 62 61 49 49 53 67 97 109 120 123
327 258 246 243 246 209 167 135 118 64 61 83 86 47 309 173 162 160 157 157 154 142 138 134 128 119 113 109 102 96 89 79 72 73 77 94 91 72 73 49 45 53 80 114
224 250 253 241 247 151 148 160 162 146 90 63 94 19 325 306 161 177 174 165 163 161 158 156 144 134 126 122 123 115 108 94 82 74 62 54 46 37 29 20 5 348 8 34
247 258 269 252 237 159 139 162 139 136 120 52 66 175 271 232 233 187 184 177 181 175 162 160 153 145 141 140 134 126 115 100 90 84 80 81 81 64 16 353 360 0 13 25
265 279 301 263 223 124 136 121 103 114 110 84 29 97 278 225 206 203 195 190 183 180 171 168 162 155 150 144 137 129 116 105 99 93 96 90 81 73 32 31 30 23 20 34
263 278 245 226 154 128 133 95 71 62 73 56 294 169 267 221 203 192 190 189 178 172 168 158 151 145 144 143 139 132 121 116 111 105 101 101 95 76 61 44 33 21 13 20
302 300 288 140 89 86 113 94 47 19 29 302 272 248 253 240 207 187 185 181 174 171 163 156 153 154 158 158 153 143 133 131 128 120 116 116 113 104 100 89 60 40 19 10
236 282 266 215 173 183 183 136 151 165 172 270 308 265 260 254 212 191 181 174 171 169 167 167 167 163 164 164 156 149 146 149 148 138 138 132 129 128 137 138 127 103 116 283
194 255 275 246 201 147 142 140 143 120 115 110 292 291 302 235 168 178 176 173 175 175 172 171 168 164 160 158 159 158 155 157 160 156 150 144 145 147 157 156 127 131 246 242
171 231 286 296 45 37 139 141 99 110 135 164 265 266 241 232 203 187 180 182 181 176 170 168 166 162 160 160 159 156 157 162 165 161 157 150 159 157 150 131 121 190 269 316
152 171 291 16 125 198 89 106 114 119 148 148 203 254 220 202 201 192 189 183 178 173 171 169 165 161 156 153 152 154 158 153 156 156 146 134 142 140 130 133 185 215 246 277
149 128 205 261 259 224 184 169 144 149 188 164 174 257 234 191 195 189 188 183 177 170 166 162 158 154 152 154 156 156 154 151 156 152 141 141 141 138 142 176 227 232 253 269
116 113 87 343 333 335 266 192 152 138 132 157 169 248 234 181 190 189 183 175 165 158 156 155 155 158 161 160 158 154 154 155 152 143 139 142 150 164 189 218 242 248 255 271
113 132 159 190 221 225 250 248 186 135 154 186 204 209 198 190 191 187 178 169 161 160 160 160 164 167 166 163 160 155 156 156 150 144 144 159 183 199 213 225 239 248 251 259
105 156 204 219 230 216 233 254 250 210 186 183 210 196 201 195 189 183 171 162 158 161 166 168 169 170 167 163 162 158 158 159 153 150 157 186 201 204 212 232 250 258 260 259
88 143 166 294 270 277 278 266 262 249 209 195 180 212 213 185 161 161 165 164 165 171 175 174 171 169 171 170 167 162 165 168 160 162 182 196 198 207 222 239 251 261 267 268
150 134 121 256 283 352 296 260 248 251 219 161 176 207 164 157 169 173 173 171 174 176 175 175 175 176 176 174 167 169 172 169 167 179 192 197 200 210 225 237 248 262 264 260
153 134 140 184 23 245 248 255 250 235 239 196 177 171 168 173 175 173 170 172 176 177 175 176 175 174 173 169 166 166 163 167 176 187 199 203 202 213 227 237 252 256 253 253
153 140 127 134 193 264 285 300 312 144 308 229 157 162 154 126 100 148 191 172 175 176 173 174 174 170 167 169 167 158 166 173 182 198 207 210 205 212 227 242 251 251 251 259
61 93 117 137 171 234 257 292 294 100 333 322 145 150 138 119 137 217 204 174 166 160 161 163 160 154 163 173 161 158 174 182 199 206 206 205 204 211 226 239 248 247 245 254
31 57 111 161 205 255 270 305 20 126 231 279 184 156 149 164 189 188 162 162 161 156 159 156 154 162 174 169 158 167 182 202 210 204 199 206 216 225 232 241 246 249 252 263
172 148 158 146 189 245 297 359 159 213 241 244 168 155 158 168 157 148 158 161 158 154 155 157 160 170 173 166 162 175 199 211 201 193 203 220 232 241 239 237 254 254 251 261
191 184 174 185 221 254 244 232 253 227 212 229 232 222 150 141 154 161 168 166 164 161 161 161 163 168 175 176 171 184 209 200 191 197 218 235 246 251 249 242 252 260 252 248
237 161 137 225 261 269 268 257 255 229 217 232 206 164 161 168 169 171 169 168 165 163 164 158 156 166 185 192 191 197 200 190 188 207 228 238 247 260 263 253 244 245 249 248
195 161 171 234 257 279 280 263 262 259 236 225 200 173 163 161 170 173 168 169 167 162 161 160 167 180 193 195 202 206 198 186 197 216 231 241 244 252 261 258 248 244 240 231
204 178 179 212 216 193 234 244 229 190 215 186 151 135 152 165 172 167 169 169 162 161 160 166 177 186 195 196 208 213 202 192 199 220 234 238 243 249 252 264 281 268 256 261